2017-008BE

Last updated on Thu Mar 02 2017 00:15:03 GMT+0000 (Coordinated Universal Time)

1 42000U 17008BE 17060.53857837 .00001636 00000-0 75074-4 0 9995 2 42000 97.5097 122.1498 0007378 222.9066 137.1580 15.21860983 1485
UTC large
Height (km)
Speed (km/s)
/
Latitude / Longitude
Inclination (degrees)
Orbital Period (minutes)
Azimuth
Elevation
Range (km)
Doppler Factor

Next 0 passes for location: London (51.5072 / 0.1276)

Sorry there are no passes over London.